Regional Weather Roundup
Issued by NWS Newport/Morehead, NC

Current Version | Previous Version | Text Only | Print | Product List | Glossary On
Versions: 1 2 3 4 5 6 7 8 9 10 11 12 13 14 15 16 17 18 19 20 21 22 23 24 25 26 27 28 29 30 31 32 33 34 35 36 37 38 39 40 41 42 43 44 45 46 47 48 49 50
000 ASUS42 KMHX 281425 RWRMHX WEATHER ROUNDUP FOR EASTERN NORTH CAROLINA NATIONAL WEATHER SERVICE NEWPORT/MOREHEAD CITY NC 1000 AM EDT TUE JUL 28 2015 NOTE: "FAIR" INDICATES FEW OR NO CLOUDS BELOW 12,000 FEET WITH NO SIGNIFICANT WEATHER AND/OR OBSTRUCTIONS TO VISIBILITY NCZ015>017-031-032-045>047-102-103-281500- NORTH COAST CITY SKY/WX TMP DP RH WIND PRES REMARKS EDENTON N/A 82 70 68 SE7 30.03R ELIZABETH CITY MOSUNNY 83 72 69 E7 30.03S KITTY HAWK SUNNY 84 69 60 SE6 30.02R MANTEO SUNNY 82 68 63 E6 30.04R $$ NCZ045>047-081-094-103-104-281500- CENTRAL COAST CITY SKY/WX TMP DP RH WIND PRES REMARKS FRISCO SUNNY 84 68 58 E10 30.03R SWANQUARTER N/A 84 N/A N/A SE3G14 30.00S $$ NCZ095-097-098-100-101-281500- SOUTHERN COAST CITY SKY/WX TMP DP RH WIND PRES REMARKS BEAUFORT PTSUNNY 83 72 69 E10 30.01S CEDAR ISLAND N/A 84 N/A N/A NE12 30.06S JACKSONVILLE SUNNY 83 70 64 E9 30.01R PINEY ISLAND SUNNY N/A N/A N/A E13 30.02R WILMINGTON MOSUNNY 83 72 69 E10 30.01R $$ NCZ011>013-027>030-043-044-078>080-089-090>093-098-281500- COASTAL PLAIN CITY SKY/WX TMP DP RH WIND PRES REMARKS AHOSKIE SUNNY 81 71 70 S6 30.03R CLINTON SUNNY 82 73 74 NE5 30.03R ELIZABETHTOWN MOSUNNY 82 71 69 CALM 30.02S GOLDSBORO SUNNY 83 72 68 S5 30.01R GREENVILLE SUNNY 82 72 69 E3 30.05R HAVELOCK MOSUNNY 83 71 67 E9 30.03R KENANSVILLE MOSUNNY 81 70 69 E6 30.04R KINSTON MOSUNNY 82 70 65 SE3 30.04R NEW BERN SUNNY 83 70 64 SE8 30.04R RICHLANDS SUNNY 84 66 54 E8 30.02S ROCKY MOUNT SUNNY 83 72 69 S6 30.03S WASHINGTON MOSUNNY 81 72 73 SE6 30.03R WHITEVILLE SUNNY 82 73 74 NE7 30.01S $$ AMZ130-135-150-152-154-156-158-170-250-252-270-ANZ085-086-088-633-658-670-281500- MARINE OBSERVATIONS STATION/POSITION TIME TEMP WIND PRES WAVE SWELL AIR SEA DIR/SP/G HT/PER HT/PER (UTC) (F) (DEG/KT/KT) (MB) (FT/S) (FT/S) CHESAPEAKE LIGHT 1400 80 180/ 4/ 5 1017.4 64 E VA BEACH 1350 80 80 150/ 4/ 6 1016.6 2/11 2/11 DUCK 1400 80 70 130/ 8/ 8 1016.1 2 E DUCK 1411 80 N/A 2/11 2/11 OREGON INLET 1400 81 81 80/ 7/ 10 1016.9 13E OREGON INLT 1400 79 N/A 2/11 2/11 HATTERAS CG 1400 83 82 100/ 5/ 10 1016.5 DIAMOND BUOY NOT AVBL CAPE LOOKOUT 1400 81 80/ 15/ 16 1016.0 BEAUFORT LAB 1400 82 81 110/ 13/ 14 1015.6 30 SE NEW RVR IN NOT AVBL 27 SE WRIGHTSVLE 1400 78 81 90/ 14/ 16 N/A 5 SE WRIGHTSVLE 1308 81 81 80/ 14/ 17 1015.8 225 S CAPE HAT 1350 77 82 250/ 19/ 23 1016.2 7/ 7 2/10 41 SE CHARLESTON 1350 83 84 50/ 10/ 12 1014.3 3/ 7 3/ 7 $$

USA.gov is the U.S. government's official web portal to all federal, state and local government web resources and services.